Content
SEND FEEDBACK

Daily
Averages
Monthly
Summary
United States of America

COLUMBUS AIR FORCE BASE, MISSISSIPPI


Home > North America > United States > Mississippi
Elevation: 223 feet     Latitude: 33 39N     Longitude: 088 27W

WEATHER
 
SELECT A DAY
Number of Records: 98,309;   Date Range: 2/1/07 - 7/29/14
 
SHARE

PRINT THIS DATA

[ ← Previous Day ]
WEATHER ALMANAC - FEBRUARY 5, 2013
[ Next Day → ]
[ °C ]   °F
Weather ElementAverageHighLow
Temperature48.6 °F61.2 °F (3:58 pm)41 °F (10:03 pm)
Dewpoint43.8 °F49.3 °F (4:58 pm)37.4 °F (1:58 am)
Humidity84.7 %100 % (7:23 pm)63 % (12:58 pm)
Barometer30.03 in30.08 in (10:58 pm)29.95 in (2:18 am)
Wind Speed1.3 mph8.1 mph (3:58 pm)
Weather ElementAverage
Visibility6.5 mi
Wind DirectionENE (63.8 °)

Weather ElementTotal
Precipitation---
Heating Degree Days13.9 (Base 65)
Growing Degree Days1.1 (Base 50)
Averaged from 68 records on February 5, 2013
WEATHER CONDITIONS BREAKOUT
WIND DIRECTION BREAKOUT
WEATHER BY HOUR - FEBRUARY 5, 2013
[ °C ]   °F
Local TimeTemperatureDewpointHumidityBarometerVisibilityWind DirectionWind SpeedGust SpeedPrecipitationEventsConditions
1:58 AM46.4 °F37.4 °F71 %29.96 in10.0 miCalm (360°)Overcast
2:18 AM48.2 °F39.2 °F71 %29.95 in10.0 miSSE (160°)3.5 mphOvercast
2:58 AM48.0 °F39.2 °F72 %29.96 in10.0 miCalmOvercast
3:13 AM48.2 °F39.2 °F71 %29.95 in10.0 miCalmOvercast
3:54 AM48.2 °F39.2 °F71 %29.96 in10.0 miNNE (20°)1.2 mphOvercast
3:58 AM48.0 °F39.9 °F74 %29.97 in10.0 miNNE (20°)1.2 mphOvercast
4:38 AM48.2 °F41.0 °F76 %29.97 in10.0 miCalmOvercast
4:48 AM48.2 °F41.0 °F76 %29.97 in10.0 miCalmOvercast
4:53 AM48.2 °F41.0 °F76 %29.97 in10.0 miCalmOvercast
4:58 AM48.0 °F41.7 °F79 %29.98 in10.0 miCalmOvercast
5:08 AM48.2 °F41.0 °F76 %29.97 in10.0 miCalmOvercast
5:39 AM48.2 °F42.8 °F82 %29.98 in10.0 miCalmRainLight Rain
5:48 AM48.2 °F42.8 °F82 %29.99 in10.0 miCalmOvercast
5:58 AM47.8 °F43.0 °F83 %30.00 in10.0 miSE (140°)1.2 mph0.00 inOvercast
6:13 AM48.2 °F42.8 °F82 %29.99 in10.0 miESE (120°)2.3 mphOvercast
6:48 AM48.2 °F44.6 °F87 %29.99 in10.0 miESE (110°)3.5 mphOvercast
6:58 AM47.5 °F43.7 °F87 %30.01 in10.0 miESE (120°)2.3 mphOvercast
7:39 AM48.2 °F42.8 °F82 %30.01 in10.0 miEast (90°)2.3 mphOvercast
7:58 AM48.6 °F42.8 °F80 %30.03 in10.0 miESE (110°)1.2 mphOvercast
8:03 AM48.2 °F42.8 °F82 %30.02 in10.0 miCalmOvercast
8:16 AM50.0 °F42.8 °F76 %30.03 in10.0 miSouth (170°)4.6 mphOvercast
8:58 AM50.5 °F43.2 °F76 %30.05 in10.0 miSSE (160°)2.3 mphOvercast
9:18 AM51.8 °F42.8 °F71 %30.04 in10.0 miSSE (160°)2.3 mphOvercast
9:58 AM53.1 °F44.1 °F71 %30.05 in10.0 miSouth (170°)3.5 mphOvercast
10:13 AM53.6 °F44.6 °F72 %30.05 in10.0 miSouth (180°)4.6 mphOvercast
10:33 AM53.6 °F44.6 °F72 %30.05 in10.0 miSouth (170°)3.5 mphOvercast
10:38 AM53.6 °F44.6 °F72 %30.05 in10.0 miSSE (160°)3.5 mphOvercast
10:48 AM55.4 °F44.6 °F67 %30.05 in10.0 miSSW (210°)4.6 mphOvercast
10:58 AM55.6 °F45.5 °F69 %30.05 in10.0 miVariable1.2 mphMostly Cloudy
11:48 AM55.4 °F46.4 °F72 %30.04 in10.0 miVariable2.3 mphOvercast
11:58 AM56.5 °F46.2 °F68 %30.05 in10.0 miWSW (250°)2.3 mphOvercast
12:58 PM59.5 °F46.8 °F63 %30.02 in10.0 miSouth (190°)5.8 mphOvercast
1:30 PM59.0 °F46.4 °F63 %30.00 in10.0 miSSW (210°)5.8 mphMostly Cloudy
1:49 PM59.0 °F46.4 °F63 %30.00 in10.0 miSW (220°)6.9 mphScattered Clouds
1:58 PM59.5 °F47.7 °F65 %30.00 in10.0 miSW (220°)1.2 mphScattered Clouds
2:58 PM60.1 °F48.6 °F66 %30.00 in10.0 miSSW (210°)2.3 mphScattered Clouds
3:58 PM61.2 °F48.7 °F64 %30.00 in10.0 miSouth (190°)8.1 mphMostly Cloudy
4:58 PM58.8 °F49.3 °F71 %30.00 in10.0 miSW (220°)3.5 mphClear
5:58 PM52.3 °F48.7 °F88 %30.01 in10.0 miCalmClear
6:58 PM49.3 °F47.1 °F92 %30.03 in10.0 miCalmClear
7:18 PM48.2 °F46.4 °F93 %30.03 in2.5 miCalmClear
7:23 PM46.4 °F46.4 °F100 %30.04 in5.0 miCalmClear
7:31 PM46.4 °F46.4 °F100 %30.03 in7.0 miCalmClear
7:55 PM46.4 °F46.4 °F100 %30.05 in6.0 miCalmClear
7:57 PM46.4 °F46.4 °F100 %30.05 in6.0 miCalmClear
8:21 PM46.4 °F46.4 °F100 %30.04 in1.2 miCalmClear
8:26 PM46.4 °F46.4 °F100 %30.05 in0.5 miCalmFogFog
8:31 PM44.6 °F44.6 °F100 %30.05 in0.5 miCalmFogFog
8:36 PM44.6 °F44.6 °F100 %30.05 in0.2 miCalmFogFog
8:46 PM44.6 °F44.6 °F100 %30.05 in0.2 miCalmFogFog
8:51 PM44.6 °F44.6 °F100 %30.05 in0.2 miCalmFogFog
8:56 PM44.6 °F44.6 °F100 %30.06 in0.2 miCalmFogFog
8:59 PM44.6 °F44.6 °F100 %30.07 in0.2 miCalmFogFog
9:09 PM44.6 °F44.6 °F100 %30.06 in0.5 miCalmFogFog
9:14 PM42.8 °F42.8 °F100 %30.06 in0.2 miCalmFogFog
9:58 PM42.1 °F41.7 °F99 %30.07 in0.2 miCalmFogFog
10:03 PM41.0 °F41.0 °F100 %30.06 in0.5 miCalmFogFog
10:13 PM42.8 °F42.8 °F100 %30.06 in0.5 miCalmFogFog
10:15 PM42.8 °F41.0 °F93 %30.07 in0.5 miCalmFogFog
10:20 PM42.8 °F42.8 °F100 %30.06 in1.5 miCalmScattered Clouds
10:25 PM42.8 °F41.0 °F93 %30.06 in2.5 miCalmMostly Cloudy
10:30 PM42.8 °F42.8 °F100 %30.06 in0.8 miCalmMist
10:35 PM42.8 °F42.8 °F100 %30.06 in0.2 miCalmFogFog
10:50 PM42.8 °F42.8 °F100 %30.07 in0.2 miCalmFogFog
10:58 PM42.8 °F42.8 °F100 %30.08 in0.2 miCalm0.00 inFogFog
11:10 PM42.8 °F42.8 °F100 %30.07 in0.2 miCalmFogFog
11:55 PM42.8 °F42.8 °F100 %30.07 in0.5 miCalmFogFog
11:58 PM42.8 °F42.8 °F100 %30.08 in0.5 miCalmFogFog
Hourly data recorded from KCBM, located miles away from Columbus Air Force Base, Mississippi







STORIES FROM OUR PARTNERS